TimeCDT,TemperatureF,Dew PointF,Humidity,Sea Level PressureIn,VisibilityMPH,Wind Direction,Wind SpeedMPH,Gust SpeedMPH,PrecipitationIn,Events,Conditions,WindDirDegrees,DateUTC
12:56 AM,61.0,52.0,72,30.12,10.0,NNE,3.5,-,N/A,,Clear,20,2013-08-23 05:56:00
1:56 AM,57.9,51.1,78,30.12,10.0,Calm,Calm,-,N/A,,Clear,0,2013-08-23 06:56:00
2:56 AM,57.0,52.0,83,30.12,10.0,NNE,3.5,-,N/A,,Clear,20,2013-08-23 07:56:00
3:56 AM,55.0,52.0,89,30.12,10.0,North,3.5,-,N/A,,Clear,360,2013-08-23 08:56:00
4:56 AM,54.0,52.0,93,30.14,10.0,Calm,Calm,-,N/A,,Clear,0,2013-08-23 09:56:00
5:56 AM,54.0,53.1,97,30.14,10.0,NE,3.5,-,N/A,,Clear,40,2013-08-23 10:56:00
6:56 AM,55.9,54.0,93,30.15,10.0,NE,4.6,-,N/A,,Clear,40,2013-08-23 11:56:00
7:56 AM,61.0,55.9,83,30.16,10.0,Calm,Calm,-,N/A,,Clear,0,2013-08-23 12:56:00
8:56 AM,64.9,57.0,75,30.16,10.0,East,3.5,-,N/A,,Clear,80,2013-08-23 13:56:00
9:56 AM,69.1,57.9,68,30.16,10.0,South,3.5,-,N/A,,Clear,170,2013-08-23 14:56:00
10:56 AM,73.0,59.0,61,30.15,10.0,Calm,Calm,-,N/A,,Clear,0,2013-08-23 15:56:00
11:56 AM,79.0,59.0,50,30.14,10.0,SSW,4.6,-,N/A,,Clear,200,2013-08-23 16:56:00
12:56 PM,82.0,57.9,44,30.12,10.0,Variable,5.8,-,N/A,,Clear,0,2013-08-23 17:56:00
1:56 PM,84.0,57.0,40,30.10,10.0,ESE,5.8,-,N/A,,Clear,120,2013-08-23 18:56:00
2:56 PM,84.9,57.9,40,30.09,10.0,South,5.8,-,N/A,,Scattered Clouds,170,2013-08-23 19:56:00
3:56 PM,84.0,57.9,41,30.08,10.0,Variable,5.8,-,N/A,,Clear,0,2013-08-23 20:56:00
4:56 PM,84.0,60.1,44,30.07,10.0,South,11.5,-,N/A,,Scattered Clouds,180,2013-08-23 21:56:00
5:56 PM,82.9,60.1,46,30.07,10.0,South,8.1,-,N/A,,Clear,190,2013-08-23 22:56:00
6:56 PM,81.0,62.1,52,30.07,10.0,South,10.4,-,N/A,,Clear,180,2013-08-23 23:56:00
7:56 PM,78.1,62.1,58,30.07,10.0,South,8.1,-,N/A,,Clear,180,2013-08-24 00:56:00
8:56 PM,75.9,63.0,64,30.07,10.0,South,6.9,-,N/A,,Clear,170,2013-08-24 01:56:00
9:56 PM,73.0,64.0,73,30.09,10.0,SSE,5.8,-,N/A,,Clear,160,2013-08-24 02:56:00
10:56 PM,73.0,63.0,71,30.09,10.0,South,6.9,-,N/A,,Clear,180,2013-08-24 03:56:00
11:56 PM,70.0,62.1,76,30.09,10.0,SSE,4.6,-,N/A,,Clear,150,2013-08-24 04:56:00